This is the latest recevied weather packets stored in our database for station/object SALT. If no packets are shown the sender has not sent any weather packets the latest 10 day(s).
| Time | Temp. | Humidity | Pressure | Rain* | Wind** | Luminosity | Snow |
|---|---|---|---|---|---|---|---|
| 1777891424 | 10° C | 39% | 1013.8 hPa | 0 mm | - | - | - |
| 1777890819 | 9.44° C | 43% | 1013.8 hPa | 0 mm | - | - | - |
| 1777890215 | 9.44° C | 46% | 1013.8 hPa | 0 mm | - | - | - |
| 1777889614 | 8.89° C | 49% | 1013.8 hPa | 0 mm | - | - | - |
| 1777889010 | 8.33° C | 50% | 1013.7 hPa | 0 mm | - | - | - |
| 1777888409 | 8.33° C | 51% | 1013.8 hPa | 0 mm | - | - | - |
| 1777887806 | 8.89° C | 51% | 1013.7 hPa | 0 mm | - | - | - |
| 1777887202 | 8.89° C | 51% | 1013.7 hPa | 0 mm | - | - | - |
| 1777886598 | 8.89° C | 51% | 1013.7 hPa | 0 mm | - | - | - |
| 1777885996 | 8.89° C | 52% | 1013.6 hPa | 0 mm | - | - | - |
| 1777885393 | 8.89° C | 53% | 1013.8 hPa | 0 mm | - | - | - |
| 1777884791 | 8.89° C | 55% | 1013.8 hPa | 0 mm | - | - | - |
| 1777884188 | 8.33° C | 56% | 1013.9 hPa | 0 mm | - | - | - |
| 1777883584 | 8.89° C | 55% | 1014.1 hPa | 0 mm | - | - | - |
| 1777882980 | 8.89° C | 54% | 1014.2 hPa | 0 mm | - | - | - |
| 1777882378 | 9.44° C | 54% | 1014.3 hPa | 0 mm | - | - | - |
| 1777881775 | 9.44° C | 53% | 1014.4 hPa | 0 mm | - | - | - |
| 1777881172 | 9.44° C | 52% | 1014.5 hPa | 0 mm | - | - | - |
| 1777880569 | 10° C | 51% | 1014.7 hPa | 0 mm | - | - | - |
| 1777879966 | 9.44° C | 52% | 1014.8 hPa | 0 mm | - | - | - |
| 1777879362 | 8.89° C | 54% | 1014.8 hPa | 0 mm | - | - | - |
| 1777878760 | 9.44° C | 54% | 1014.9 hPa | 0 mm | - | - | - |
| 1777878156 | 9.44° C | 55% | 1014.8 hPa | 0 mm | - | - | - |
| 1777877554 | 8.89° C | 58% | 1014.9 hPa | 0 mm | - | - | - |
| 1777876952 | 8.33° C | 61% | 1015.1 hPa | 0 mm | - | - | - |
* Rain latest 24 hours (hover to see other rain measurements)
** Current wind speed in m/s (hover to see current wind gust speed)